Location: Gisborne
(38.6530°S, 178.0040°E)
Time: 01:57:41
(UTC+13:00)

Cosmos 2333 - Pass Details

Date: 24 January 2019
Orbit: 831 x 865 km, 70.9° (Epoch: 22 February)

Event Time Altitude Azimuth Distance (km) Brightness Sun altitude
Exits shadow 22:49:20 48° 37° (NE) 1,132 4.4 -22.2°
Maximum altitude 22:50:21 54° 73° (ENE) 1,054 4.3 -22.3°
Drops below altitude 10° 22:56:01 10° 148° (SSE) 2,534 6.9 -23.0°
Sets 22:58:32 0° 152° (SSE) 3,476 7.7 -23.3°
